Regional Weather Roundup
Issued by NWS

Home | Current Version | Previous Version | Text Only | Print | Product List | Glossary On
Versions: 1 2 3 4 5 6 7 8 9 10 11 12 13 14 15 16 17 18 19 20 21 22 23 24 25 26 27 28 29 30 31 32 33 34 35 36 37 38 39 40 41 42 43 44 45 46 47 48 49 50
739
ASUS45 KREV 240710
RWRNV
NEVADA REGIONAL WEATHER ROUNDUP
NATIONAL WEATHER SERVICE RENO NV
1100 PM PST FRI FEB 23 2018

NOTE: "FAIR" INDICATES FEW OR NO CLOUDS BELOW 12,000 FEET WITH NO
SIGNIFICANT WEATHER AND/OR OBSTRUCTIONS TO VISIBILITY.

NVZ001-003-004-240800-
WESTERN NEVADA

CITY           SKY/WX    TMP DP  RH WIND       PRES   REMARKS
RENO           PTCLDY    21   9  59 W5        30.32S
CARSON CITY    FAIR      16   5  62 N5        30.33S
MINDEN         FAIR      10   3  72 E8        30.33S
SLIDE MTN        N/A     16  10  79 NW17        N/A  WCI   0
PYRAMID LAKE     N/A     28 N/A N/A SW8         N/A
FALLON         PTCLDY    15  11  83 S8        30.32S
LOVELOCK       CLEAR     10   5  80 E7        30.31F
HAWTHORNE      CLEAR     19   9  63 SW6       30.31S
$$

NVZ002-CAZ072-073-240800-
NORTHERN AND CENTRAL SIERRA

CITY           SKY/WX    TMP DP  RH WIND       PRES   REMARKS
S. LAKE TAHOE  CLEAR      8   3  80 SW6       30.25S
TRUCKEE        CLEAR      7   3  85 SE3       30.28S
SQUAW VLY 8000   N/A     19  -9  27 N10         N/A
SUSANVILLE     CLEAR     21   9  58 W6        30.30F
BLUE CANYON    CLEAR     27  -4  26 CALM      30.25F
MAMMOTH LAKES  FAIR       8  -3  60 CALM      30.20F
BRIDGEPORT     FAIR       1  -4  79 CALM      30.23R
$$

NVZ030-031-036-240800-
NORTHERN NEVADA

CITY           SKY/WX    TMP DP  RH WIND       PRES   REMARKS
ELKO           CLOUDY    14  10  84 SW5       30.21F
WINNEMUCCA     CLEAR     18   8  65 S9        30.27S
WENDOVER       PTCLDY    25   4  40 W13       30.18S
$$

NVZ035-037-240800-
CENTRAL NEVADA

CITY           SKY/WX    TMP DP  RH WIND       PRES   REMARKS
ELY            CLEAR      8   0  69 W5        30.16F
EUREKA           N/A      3  -2  79 S3        30.21S
$$

NVZ013-014-240800-
SOUTH CENTRAL NEVADA

CITY           SKY/WX    TMP DP  RH WIND       PRES   REMARKS
TONOPAH        CLEAR     16   4  59 N8        30.25S
$$

NVZ017-020-022-240800-
SOUTHERN NEVADA

CITY           SKY/WX    TMP DP  RH WIND       PRES   REMARKS
LAS VEGAS      CLEAR     42   7  23 N13       30.25R
N. LAS VEGAS   CLEAR     41   6  23 N14       30.25R
NELLIS AFB     CLEAR     40  21  47 CALM      30.26R
HENDERSON      CLEAR     38   8  29 N8        30.27R
MERCURY        CLEAR     31   9  39 CALM      30.25F
$$




USA.gov is the U.S. government's official web portal to all federal, state and local government web resources and services.